Simultaneous Nadir Overpasses (SNOs) Predictions

Prediction of SNOs between AQUA and METOP-A Satellite Orbit:

Table of predicted SNOs for the next 14.0 days since TLE Epoch: 6/1/2013
Index Date (AQUA) Time (AQUA) Lat,Lon (AQUA) SZA (AQUA ) Date (METOP-A) Time (METOP-A) Lat,Lon (METOP-A) SZA (METOP-A ) Distance(km) Time Diff (sec)
1 06/02/2013 03:40:41 -73.73, -60.60 128.49 06/02/2013 03:39:29 -73.64, -61.32 128.54 24.75 72
2 06/02/2013 04:30:12 73.91, 106.64 51.70 06/02/2013 04:30:04 73.90, 106.62 51.69 1.66 8
3 06/02/2013 05:19:39 -73.99, -85.88 128.23 06/02/2013 05:20:44 -73.97, -85.89 128.25 2.29 65
4 06/04/2013 23:14:56 -73.85, 5.59 128.70 06/04/2013 23:13:45 -73.86, 5.61 128.68 1.45 71
5 06/05/2013 00:04:25 73.93, 173.04 51.39 06/05/2013 00:04:24 73.91, 173.07 51.37 2.20 1
6 06/05/2013 00:53:52 -74.00, -19.48 128.54 06/05/2013 00:55:04 -73.99, -19.42 128.57 2.34 72
7 06/07/2013 18:49:10 -73.89, 71.94 128.94 06/07/2013 18:48:06 -73.87, 72.06 128.94 3.88 64
8 06/07/2013 19:38:38 73.92,-120.50 51.10 06/07/2013 19:38:45 73.92,-120.50 51.10 0.29 7
9 06/07/2013 20:28:10 -74.25, 46.40 128.56 06/07/2013 20:29:20 -74.24, 47.64 128.61 37.27 70
10 06/10/2013 14:23:22 -73.85, 138.47 129.20 06/10/2013 14:22:27 -73.88, 138.49 129.16 3.55 55
11 06/10/2013 15:12:51 73.94, -54.09 50.89 06/10/2013 15:13:06 73.92, -54.08 50.87 2.11 15
12 06/10/2013 16:02:29 -74.57, 112.08 128.44 06/10/2013 16:03:35 -74.54, 114.83 128.55 81.53 66
13 06/13/2013 09:57:35 -73.89,-155.17 129.34 06/13/2013 09:56:48 -73.88,-155.09 129.34 2.54 47
14 06/13/2013 10:47:03 73.93, 12.38 50.71 06/13/2013 10:47:27 73.91, 12.33 50.70 2.26 24




NCC Satellite Simultaneous Nadir Overpasses (SNOs) Prediction Service
